Date String (YYYY-MM-DD hh:mm:ss) UTC,Instrument flags,Ambient pressure (hPa),Sample flow (lpm),Bypass flow (lpm),Sample temperature (°C),Ambient temperature (°C),ASC tube jacket temperature (°C),LED temperature (°C),Box temperature (°C),Sample RH (%),Span deviation,Mass concentration (μg/m³),Mass concentration (μg/m³),Mass concentration (μg/m³)
DateTimeUTC,F1_M11,P_M11,Q1_M11,Q2_M11,T1_M11,T2_M11,T3_M11,T4_M11,T5_M11,U1_M11,ZSPAN_M11,X0_M11,X2_M11,X1_M11
2022-04-23 12:00:00,,0809.4,5.01,0.00,23.7,22.6,00.0,32.8,25.4,11.4,0000.0,0006.10,0000.49,0000.08
2022-04-23 12:01:00,,0809.5,4.99,0.00,23.7,22.6,00.0,32.8,25.5,11.5,0000.0,0006.10,0000.57,0000.09
2022-04-23 12:02:00,,0809.3,5.01,0.00,23.7,22.6,00.0,32.8,25.5,11.6,0000.0,0005.80,0000.56,0000.09
2022-04-23 12:03:00,,0809.5,4.98,0.00,23.7,22.6,00.0,32.8,25.5,11.6,0000.0,0005.54,0000.57,0000.09
2022-04-23 12:04:00,,0809.5,5.02,0.00,23.7,22.6,00.0,32.8,25.4,11.5,0000.0,0005.45,0000.58,0000.09
2022-04-23 12:05:00,,0809.5,5.00,0.00,23.7,22.6,00.0,32.8,25.4,11.6,0000.0,0005.51,0000.59,0000.09
2022-04-23 12:06:00,,0809.6,4.99,0.00,23.7,22.6,00.0,32.7,25.4,11.6,0000.0,0005.13,0000.65,0000.10
2022-04-23 12:07:00,,0809.4,5.00,0.00,23.6,22.5,00.0,32.7,25.4,11.6,0000.0,0005.16,0000.68,0000.10
2022-04-23 12:08:00,,0809.3,5.00,0.00,23.6,22.5,00.0,32.7,25.3,11.5,0000.0,0006.61,0000.78,0000.10
2022-04-23 12:09:00,,0809.4,5.01,0.00,23.6,22.5,00.0,32.7,25.3,11.3,0000.0,0007.94,0000.85,0000.10
2022-04-23 12:10:00,,0809.4,4.99,0.00,23.6,22.5,00.0,32.7,25.3,11.3,0000.0,0008.38,0000.96,0000.11
2022-04-23 12:11:00,,0809.3,5.01,0.00,23.6,22.5,00.0,32.7,25.3,11.3,0000.0,0008.48,0001.02,0000.11
2022-04-23 12:12:00,,0809.0,4.99,0.00,23.6,22.5,00.0,32.7,25.3,11.1,0000.0,0008.58,0001.02,0000.12
2022-04-23 12:13:00,,0809.3,5.01,0.00,23.6,22.5,00.0,32.7,25.3,11.1,0000.0,0009.15,0001.13,0000.13
2022-04-23 12:14:00,,0809.1,5.01,0.00,23.6,22.5,00.0,32.7,25.3,11.2,0000.0,0009.51,0001.21,0000.14
2022-04-23 12:15:00,,0809.2,4.98,0.00,23.6,22.5,00.0,32.7,25.3,11.1,0000.0,0009.89,0001.31,0000.15
2022-04-23 12:16:00,,0809.3,5.01,0.00,23.6,22.5,00.0,32.6,25.3,11.2,0000.0,0010.63,0001.41,0000.16
2022-04-23 12:17:00,,0809.2,5.01,0.00,23.6,22.5,00.0,32.6,25.3,11.1,0000.0,0010.20,0001.46,0000.16
2022-04-23 12:18:00,,0809.3,4.99,0.00,23.6,22.5,00.0,32.6,25.4,11.2,0000.0,0009.99,0001.48,0000.16
2022-04-23 12:19:00,,0809.4,4.98,0.00,23.6,22.5,00.0,32.6,25.4,11.3,0000.0,0009.89,0001.45,0000.17
2022-04-23 12:20:00,,0809.1,5.02,0.00,23.6,22.5,00.0,32.6,25.3,11.2,0000.0,0010.02,0001.55,0000.19
2022-04-23 12:21:00,,0809.2,5.00,0.00,23.6,22.5,00.0,32.6,25.3,11.3,0000.0,0011.84,0001.75,0000.20
2022-04-23 12:22:00,,0809.0,4.99,0.00,23.5,22.5,00.0,32.6,25.2,11.4,0000.0,0013.86,0001.91,0000.22
2022-04-23 12:23:00,,0809.0,5.01,0.00,23.5,22.5,00.0,32.6,25.2,11.5,0000.0,0014.19,0001.96,0000.22
2022-04-23 12:24:00,,0808.9,5.00,0.00,23.5,22.4,00.0,32.6,25.1,11.6,0000.0,0013.41,0001.84,0000.22
2022-04-23 12:25:00,,0809.0,5.00,0.00,23.5,22.4,00.0,32.6,25.2,11.6,0000.0,0012.98,0001.77,0000.22
2022-04-23 12:26:00,,0808.9,5.00,0.00,23.5,22.4,00.0,32.5,25.2,11.7,0000.0,0013.45,0001.68,0000.21
2022-04-23 12:27:00,,0809.0,5.01,0.00,23.4,22.3,00.0,32.5,25.1,11.6,0000.0,0012.99,0001.66,0000.20
2022-04-23 12:28:00,,0809.3,4.99,0.00,23.4,22.3,00.0,32.5,25.1,11.5,0000.0,0013.26,0001.75,0000.22
2022-04-23 12:29:00,,0808.8,5.00,0.00,23.4,22.3,00.0,32.5,25.1,11.6,0000.0,0013.99,0001.88,0000.23
2022-04-23 12:30:00,,0809.0,5.02,0.00,23.4,22.3,00.0,32.5,25.1,11.6,0000.0,0014.48,0001.90,0000.23
2022-04-23 12:31:00,,0809.3,5.00,0.00,23.3,22.3,00.0,32.5,25.0,11.6,0000.0,0014.76,0001.88,0000.23
2022-04-23 12:32:00,,0809.5,4.99,0.00,23.3,22.3,00.0,32.5,25.0,11.7,0000.0,0013.03,0001.61,0000.21
2022-04-23 12:33:00,,0809.5,5.01,0.00,23.3,22.3,00.0,32.5,25.0,11.7,0000.0,0011.18,0001.50,0000.19
2022-04-23 12:34:00,,0809.2,5.00,0.00,23.3,22.3,00.0,32.5,25.0,11.6,0000.0,0012.34,0001.67,0000.20
2022-04-23 12:35:00,,0809.2,4.99,0.00,23.3,22.3,00.0,32.4,25.0,11.7,0000.0,0013.61,0001.93,0000.22
2022-04-23 12:36:00,,0809.1,5.00,0.00,23.3,22.3,00.0,32.4,25.0,11.8,0000.0,0015.13,0002.12,0000.24
2022-04-23 12:37:00,,0809.1,5.01,0.00,23.3,22.2,00.0,32.4,25.0,11.7,0000.0,0014.60,0002.19,0000.24
2022-04-23 12:38:00,,0809.2,5.02,0.00,23.3,22.2,00.0,32.4,25.1,11.7,0000.0,0015.22,0002.19,0000.25
2022-04-23 12:39:00,,0809.2,4.99,0.00,23.3,22.2,00.0,32.4,25.0,11.6,0000.0,0015.15,0002.01,0000.24
2022-04-23 12:40:00,,0809.6,5.00,0.00,23.3,22.2,00.0,32.4,25.0,11.6,0000.0,0015.13,0001.87,0000.22
2022-04-23 12:41:00,,0809.9,4.98,0.00,23.3,22.3,00.0,32.4,25.0,11.8,0000.0,0015.04,0001.86,0000.22
2022-04-23 12:42:00,,0810.0,5.01,0.00,23.3,22.3,00.0,32.4,25.0,12.2,0000.0,0014.13,0001.75,0000.21
2022-04-23 12:43:00,,0810.2,5.00,0.00,23.3,22.3,00.0,32.4,25.0,12.5,0000.0,0013.71,0001.76,0000.21
2022-04-23 12:44:00,,0810.1,4.99,0.00,23.3,22.3,00.0,32.4,25.1,12.3,0000.0,0013.42,0001.73,0000.21
2022-04-23 12:45:00,,0810.2,5.01,0.00,23.3,22.4,00.0,32.4,25.1,12.6,0000.0,0012.30,0001.59,0000.20
2022-04-23 12:46:00,,0810.2,5.00,0.00,23.4,22.5,00.0,32.4,25.2,12.8,0000.0,0010.69,0001.30,0000.18
2022-04-23 12:47:00,,0810.2,5.00,0.00,23.4,22.5,00.0,32.4,25.2,12.8,0000.0,0009.16,0001.18,0000.16
2022-04-23 12:48:00,,0810.0,5.00,0.00,23.3,22.5,00.0,32.4,25.1,12.3,0000.0,0009.28,0001.17,0000.15
2022-04-23 12:49:00,,0809.8,5.02,0.00,23.3,22.5,00.0,32.4,25.1,11.7,0000.0,0009.06,0001.14,0000.15
2022-04-23 12:50:00,,0809.9,4.99,0.00,23.3,22.4,00.0,32.3,25.0,11.7,0000.0,0008.37,0001.11,0000.14
2022-04-23 12:51:00,,0810.0,4.99,0.00,23.3,22.4,00.0,32.3,25.0,11.7,0000.0,0008.24,0001.13,0000.14
2022-04-23 12:52:00,,0809.8,5.00,0.00,23.3,22.3,00.0,32.3,25.0,11.5,0000.0,0007.86,0001.17,0000.14
2022-04-23 12:53:00,,0809.6,4.99,0.00,23.3,22.3,00.0,32.3,24.9,11.4,0000.0,0007.68,0001.24,0000.14
2022-04-23 12:54:00,,0809.8,4.99,0.00,23.3,22.3,00.0,32.3,25.0,11.3,0000.0,0007.77,0001.27,0000.15
2022-04-23 12:55:00,,0809.8,5.01,0.00,23.3,22.3,00.0,32.3,25.0,11.2,0000.0,0008.09,0001.31,0000.14
2022-04-23 12:56:00,,0809.7,5.01,0.00,23.3,22.3,00.0,32.3,25.0,11.1,0000.0,0008.29,0001.29,0000.14
2022-04-23 12:57:00,,0809.6,4.99,0.00,23.2,22.3,00.0,32.3,24.9,11.1,0000.0,0009.29,0001.35,0000.14
2022-04-23 12:58:00,,0809.6,5.00,0.00,23.2,22.3,00.0,32.3,24.9,11.0,0000.0,0009.15,0001.30,0000.14
2022-04-23 12:59:00,,0809.8,5.02,0.00,23.2,22.2,00.0,32.3,24.9,11.2,0000.0,0008.34,0001.24,0000.13
